Regional Weather Roundup
Issued by NWS State College, PA

Home | Current Version | Previous Version | Graphics & Text | Print | Product List | Glossary On
Versions: 1 2 3 4 5 6 7 8 9 10 11 12 13 14 15 16 17 18 19 20 21 22 23 24 25 26 27 28 29 30 31 32 33 34 35 36 37 38 39 40 41 42 43 44 45 46 47 48 49 50
000
ASUS41 KCTP 192003
RWRCTP

REGIONAL WEATHER ROUNDUP
NATIONAL WEATHER SERVICE STATE COLLEGE PA
400 PM EDT SAT AUG 19 2017

Note: "fair" indicates few or no clouds below 12,000 feet with no
significant weather and/or obstructions to visibility.

* = STATION THAT DOES NOT REPORT PRECIPITATION /E.G. RAIN...SNOW...ETC/
    THUNDER OR FOG.

PAZ002>004-007>009-013>016-020>023-029>032-192100-
WESTERN PENNSYLVANIA

CITY           SKY/WX    TMP DP  RH WIND       PRES   REMARKS
ERIE           MOSUNNY   76  62  62 W10       29.90F
MEADVILLE      CLOUDY    75  64  68 NW8G16    29.92F
FRANKLIN*      CLOUDY    75  59  57 W8        29.92S
NEW CASTLE     MOCLDY    67  64  90 SW5       29.93S
BEAVER COUNTY  NOT AVBL
BUTLER*        TSTM      67  61  81 N16G28    29.98R
PITTSBURGH INT TSTM      82  64  54 W10       29.91S
PITTSBURGH     MOSUNNY   81  60  48 SW14G25   29.89F
INDIANA*       SUNNY     81  66  61 SW10      29.92F
LATROBE        PTSUNNY   81  66  61 SW9       29.91F
WASHINGTON CO* MOSUNNY   81  64  57 SW10G18   29.92S
$$

PAZ004>006-010>012-017>019-024>028-033>037-041-042-045-046-049>053-192100-
CENTRAL PENNSYLVANIA

CITY           SKY/WX    TMP DP  RH WIND       PRES   REMARKS
BRADFORD       MOSUNNY   76  59  55 W15       29.91F
DUBOIS         PTSUNNY   77  58  51 W7        29.90F
CLEARFIELD     MOSUNNY   81  60  48 W9G18     29.90F
JOHNSTOWN      MOSUNNY   78  60  53 W7        29.95F
ALTOONA        SUNNY     80  64  58 SW7       29.93F
STATE COLLEGE  MOSUNNY   81  66  61 SW10      29.90F
WILLIAMSPORT   CLOUDY    83  66  56 SW6       29.84F
SELINSGROVE    MOSUNNY   84  68  58 VRB6      29.87F
FT INDIANTOWN  SUNNY     84  64  50 SW9       29.88F
CAPITAL CITY   SUNNY     87  61  41 W10       29.87F
HARRISBURG     MOSUNNY   85  65  51 W8G16     29.87F
YORK           SUNNY     84  67  56 SW6       29.89F
$$

PAZ038>040-043-044-047-048-054-055-060>062-067>071-192100-
EASTERN PENNSYLVANIA

CITY           SKY/WX    TMP DP  RH WIND       PRES   REMARKS
SCRANTON       MOSUNNY   83  64  52 SW8       29.88F
MOUNT POCONO     N/A     77  62  59 W9        29.93F
ALLENTOWN      MOSUNNY   85  65  51 W6        29.87F
QUAKERTOWN*    PTCLDY    84  66  54 W6        29.89S
READING        MOSUNNY   85  66  53 W7        29.86F
LANCASTER      MOSUNNY   86  65  49 W8        29.88F
COATESVILLE    CLEAR     82  66  57 VRB6      29.90F
POTTSTOWN      SUNNY     83  64  52 SW8       29.89F
BLUE BELL      SUNNY     82  64  54 NW7       29.88F
DOYLESTOWN     SUNNY     85  64  49 W12       29.87F
WILLOW GROVE   NOT AVBL
NORTH PHILA    SUNNY     88  65  46 W6        29.87F
PHILADELPHIA   MOSUNNY   87  62  43 W8        29.86F
$$



USA.gov is the U.S. government's official web portal to all federal, state and local government web resources and services.